Flag for U.S.A. Weather past 2 weeks in St. Croix Falls, Wisconsin, U.S.A.

Now
54 °F

Sunny.


Feels Like: 53 °F
Forecast: 42 / 59 °F
Wind: 5 mph from South

Location: L O Simenstad Municipal Airport

Current Time: Oct 24, 2014 at 7:24:57 PM

Latest Report: Oct 24, 2014 at 6:55 PM


Visibility: 7 mi

Pressure: 29.87 "Hg

Humidity: 100%

Dew point: 54 °F

Location of St. Croix FallsLocation

Historic Weather in St. Croix Falls — Graph

°F

St. Croix Falls temperature yesterday

Maximum temperature yesterday: 63 °F (at 4:15 PM)
Minimum temperature yesterday: 48 °F (at 10:15 PM)
Average temperature yesterday: 53 °F

Past Weeks' High & Low Weather Summary

 TemperatureHumidityPressure
High70 °F (Oct 16, 4:15 PM)100% (Oct 9, 9:15 PM)30.30 "Hg (Oct 9, 9:15 PM)
Low26 °F (Oct 11, 6:55 AM)34% (Oct 15, 3:55 PM)29.57 "Hg (Oct 16, 5:15 PM)
Average48 °F78%30.01 "Hg
* Reported Oct 9 6:15 PM — Oct 24 6:15 PM, St. Croix Falls, Weather by CustomWeather, © 2014

Note: Actual official high and low records may vary slightly from our data, if they occured in-between our weather recording intervals... More about our weather records

Advertising

St. Croix Falls weather history for previous 24 hours

 ConditionsComfort  
Time TempWeatherWind HumidityBarometerVisibility
6:15 PM
Oct 24
56 °FSunny.5 mph98%29.87 "Hg7 mi
5:55 PM58 °FSunny.5 mph96%29.87 "Hg10 mi
5:35 PM59 °FSunny.6 mph94%29.86 "Hg10 mi
5:15 PM60 °FSunny.6 mph91%29.86 "Hg10 mi
4:55 PM61 °FSunny.5 mph88%29.87 "Hg10 mi
4:15 PM62 °FScattered clouds.6 mph84%29.87 "Hg10 mi
3:55 PM61 °FOvercast.6 mph85%29.87 "Hg10 mi
3:35 PM61 °FOvercast.8 mph84%29.86 "Hg10 mi
3:15 PM61 °FOvercast.9 mph85%29.86 "Hg10 mi
2:55 PM61 °FOvercast.6 mph84%29.86 "Hg10 mi
2:15 PM61 °FOvercast.9 mph81%29.86 "Hg10 mi
1:55 PM61 °FOvercast.9 mph80%29.86 "Hg10 mi
1:35 PM62 °FOvercast.10 mph79%29.87 "Hg10 mi
1:15 PM62 °FOvercast.9 mph77%29.87 "Hg10 mi
12:55 PM62 °FPartly sunny.10 mph77%29.88 "Hg10 mi
12:35 PM63 °FSunny.13 mph73%29.89 "Hg10 mi
12:15 PM62 °FScattered clouds.12 mph76%29.89 "Hg10 mi
11:55 AM60 °FScattered clouds.13 mph80%29.90 "Hg10 mi
11:35 AM60 °FSunny.15 mph80%29.91 "Hg10 mi
11:15 AM59 °FScattered clouds.13 mph82%29.90 "Hg10 mi
10:55 AM58 °FSunny.10 mph88%29.91 "Hg10 mi
10:35 AM56 °FPartly sunny.7 mph89%29.91 "Hg10 mi
10:15 AM55 °FPartly sunny.6 mph93%29.92 "Hg10 mi
9:55 AM54 °FBroken clouds.8 mph94%29.92 "Hg10 mi
9:35 AM51 °FBroken clouds.10 mph98%29.93 "Hg10 mi
9:15 AM50 °FPartly sunny.12 mph99%29.93 "Hg10 mi
8:55 AM49 °FScattered clouds.8 mph100%29.94 "Hg10 mi
8:35 AM48 °FClear.9 mph100%29.94 "Hg10 mi
8:15 AM48 °FPassing clouds.8 mph100%29.94 "Hg10 mi
7:55 AM47 °FClear.9 mph100%29.94 "Hg10 mi
7:35 AM47 °FClear.8 mph100%29.94 "Hg10 mi
7:15 AM47 °FClear.8 mph100%29.94 "Hg7 mi
6:55 AM47 °FFog.8 mph100%29.94 "Hg5 mi
6:35 AM47 °FPassing clouds.9 mph100%29.95 "Hg7 mi
6:15 AM47 °FFog.7 mph100%29.95 "Hg5 mi
5:55 AM46 °FFog.7 mph100%29.96 "Hg4 mi
5:35 AM46 °FFog.6 mph100%29.96 "Hg4 mi
5:15 AM46 °FFog.6 mph100%29.97 "Hg5 mi
4:55 AM46 °FFog.No wind100%29.97 "Hg5 mi
4:35 AM46 °FFog.5 mph100%29.97 "Hg4 mi
4:15 AM47 °FFog.6 mph100%29.98 "Hg4 mi
3:55 AM48 °FFog.5 mph100%29.98 "Hg5 mi
3:35 AM49 °FFog.5 mph100%29.99 "Hg5 mi
3:15 AM49 °FFog.No wind100%29.99 "Hg5 mi
2:55 AM49 °FFog.5 mph100%29.99 "Hg3 mi
2:35 AM49 °FFog.7 mph100%29.99 "Hg3 mi
2:15 AM49 °FFog.8 mph100%29.99 "Hg4 mi
1:55 AM49 °FFog.6 mph100%29.99 "Hg3 mi
1:35 AM49 °FFog.6 mph100%30.01 "Hg3 mi
1:15 AM49 °FFog.8 mph100%30.01 "Hg3 mi
12:55 AM49 °FFog.6 mph100%30.00 "Hg3 mi
12:15 AM49 °FFog.6 mph100%30.00 "Hg1 mi
11:55 PM
Oct 23
49 °FFog.6 mph100%30.00 "Hg2 mi
11:15 PM48 °FFog.No wind100%29.99 "Hg5 mi
10:55 PM48 °FClear.7 mph100%30.00 "Hg7 mi
10:15 PM48 °FPassing clouds.5 mph100%30.00 "Hg7 mi
9:55 PM49 °FPassing clouds.No wind100%30.01 "Hg7 mi
9:40 PM49 °FPassing clouds.No wind100%30.01 "Hg7 mi
9:15 PM50 °FClear.5 mph100%30.01 "Hg10 mi
8:55 PM50 °FClear.7 mph100%30.00 "Hg7 mi
8:35 PM51 °FClear.6 mph100%30.01 "Hg10 mi
8:15 PM51 °FClear.7 mph100%30.01 "Hg10 mi
7:55 PM51 °FClear.7 mph100%30.01 "Hg10 mi
7:15 PM53 °FClear.6 mph97%30.01 "Hg10 mi
Weather by CustomWeather, © 2014

See weather overviewHow to use our weather pages